Location: Unspecified
(51.5147°N, 7.4673°E)
Time: 02:35:55
(UTC+01:00)

Vanguard 1 Rocket - Pass Details

Date: 18 February 2026
Orbit: 653 x 4214 km, 34.3° (Epoch: 12 March)

Event Time Altitude Azimuth Distance (km) Brightness Sun altitude
Rises 12:56:22 0° 205° (SSW) 4,195 11.9 26.9°
Reaches altitude 10° 12:59:30 10° 190° (S) 3,626 12.3 26.9°
Maximum altitude 13:06:42 23° 142° (SE) 3,580 11.4 26.8°
Drops below altitude 10° 13:17:46 10° 99° (E) 5,803 11.6 26.5°
Sets 13:24:46 0° 88° (E) 7,459 11.9 26.4°
